Regional Weather Roundup
Issued by NWS

Home | Current Version | Previous Version | Graphics & Text | Print | Product List | Glossary On
Versions: 1 2 3 4 5 6 7 8 9 10 11 12 13 14 15 16 17 18 19 20 21 22 23 24 25 26 27 28 29 30 31 32 33 34 35 36 37 38 39 40 41 42 43 44 45 46 47 48 49 50
557
ASUS43 KLMK 291610
RWRKY
KENTUCKY REGIONAL WEATHER ROUNDUP
NATIONAL WEATHER SERVICE LOUISVILLE KY
1200 PM EDT SUN MAY 29 2016

NOTE "FAIR" INDICATES FEW OR NO CLOUDS BELOW 12,000 FEET
WITH NO SIGNIFICANT WEATHER AND/OR OBSTRUCTIONS TO VISIBILITY.

KYZ001>023-026-027-061>063-070>075-291700-
WESTERN AND SOUTH CENTRAL KENTUCKY

CITY           SKY/WX    TMP DP  RH WIND       PRES   REMARKS
PADUCAH        PTSUNNY   80  68  66 SW5       30.10S
HENDERSON      MOSUNNY   82  66  57 SW8       30.08S
OWENSBORO      MOSUNNY   84  71  65 S7        30.10F
HOPKINSVILLE   MOSUNNY   81  70  69 W5        30.11F
BOWLING GREEN  MOSUNNY   81  68  64 S6        30.13S
GLASGOW        SUNNY     80  65  59 CALM      30.13F
$$

KYZ024-025-028>034-038-045-046-053-291700-
NORTH CENTRAL KENTUCKY

CITY           SKY/WX    TMP DP  RH WIND       PRES   REMARKS
LOUISVILLE/SDF MOSUNNY   83  66  56 CALM      30.10F
LOUISVILLE/LOU SUNNY     81  65  58 W6        30.10F
FORT KNOX      MOSUNNY   81  67  62 W3        30.10F
$$

KYZ035>037-039>044-047>052-055>060-089>105-291700-
NORTHEAST KENTUCKY

CITY           SKY/WX    TMP DP  RH WIND       PRES   REMARKS
LEXINGTON      PTSUNNY   80  66  62 CALM      30.14F
COVINGTON      PTSUNNY   80  67  64 VRB5      30.11F
FRANKFORT      CLOUDY    81  66  60 SW7       30.11F
$$

KYZ054-064>069-076>088-106>120-291700-
SOUTHEAST KENTUCKY

CITY           SKY/WX    TMP DP  RH WIND       PRES   REMARKS
JACKSON        CLOUDY    75  65  70 CALM      30.17R
LONDON         CLOUDY    77  64  64 W7        30.17S
SOMERSET       PTSUNNY   77  63  61 W5        30.16F
MIDDLESBORO    LGT RAIN  77  68  73 SW3       30.16S
MONTICELLO     MOSUNNY   79  64  60 W10       30.17F
$$





USA.gov is the U.S. government's official web portal to all federal, state and local government web resources and services.